Date,TemperatureHighF,TemperatureAvgF,TemperatureLowF,DewpointHighF,DewpointAvgF,DewpointLowF,HumidityHigh,HumidityAvg,HumidityLow,PressureMaxIn,PressureMinIn,WindSpeedMaxMPH,WindSpeedAvgMPH,GustSpeedMaxMPH,PrecipitationSumIn
2013-1-1,58.5,47.6,33.4,44.1,30.7,22.4,100,61,30,30.20,30.09,8,2,13,0.00
2013-1-2,64.9,55.5,39.6,32.7,26.3,17.7,47,33,30,30.12,30.03,12,4,18,0.00
2013-1-3,65.8,54.8,38.1,33.5,27.4,19.3,49,36,30,30.17,30.03,12,4,23,0.00
2013-1-4,64.2,48.4,32.4,32.1,23.8,16.5,67,40,30,30.23,30.15,5,0,8,0.00
2013-1-5,64.6,45.8,30.6,34.7,29.5,23.4,89,58,30,30.26,30.15,5,0,6,0.00
2013-1-6,56.5,47.9,39.7,50.0,40.5,34.3,100,77,49,30.17,30.00,10,1,13,0.00
2013-1-7,66.7,54.6,43.7,34.4,30.9,22.6,66,42,29,30.09,29.97,9,2,14,0.00
2013-1-8,75.2,57.1,42.6,38.5,31.6,20.3,71,40,27,30.12,30.00,9,1,13,0.00
2013-1-9,68.7,52.4,39.9,48.1,38.7,31.5,100,65,29,30.12,30.00,5,1,9,0.00
2013-1-10,55.9,48.9,39.4,48.6,32.6,21.8,97,57,34,30.09,29.91,10,2,16,0.00
2013-1-11,53.1,43.6,32.2,27.4,22.8,18.1,71,45,35,30.15,30.03,9,2,15,0.00
2013-1-12,54.9,42.8,32.5,26.5,22.8,9.7,74,46,22,30.12,30.03,8,2,13,0.00
2013-1-13,55.8,41.1,27.5,29.5,23.7,15.7,91,54,34,30.15,30.03,8,1,13,0.00
2013-1-14,51.3,43.6,36.3,22.1,16.7,12.2,37,34,32,30.29,30.12,12,5,20,0.00
2013-1-15,61.2,46.9,33.6,30.8,20.1,10.0,39,35,30,30.38,30.29,8,2,13,0.00
2013-1-16,69.6,55.0,36.7,35.2,28.2,16.9,55,37,29,30.32,30.12,10,3,25,0.00
2013-1-17,73.8,65.2,47.1,37.5,32.3,18.4,35,30,27,30.17,30.06,14,6,22,0.00
2013-1-18,72.5,56.2,40.1,36.9,27.1,17.5,47,34,27,30.15,30.06,9,2,15,0.00
2013-1-19,75.6,54.7,42.1,38.5,24.9,16.0,39,32,25,30.17,30.12,6,1,10,0.00
2013-1-20,75.2,56.1,38.1,38.5,27.1,15.9,49,34,25,30.17,30.03,9,2,15,0.00
2013-1-21,78.8,61.3,42.8,40.1,28.9,15.8,35,30,25,30.12,30.03,9,2,14,0.00
2013-1-22,77.0,54.0,35.4,38.6,26.6,0.0,55,36,25,30.12,30.03,5,0,8,0.00
2013-1-23,74.8,59.3,47.3,49.4,33.0,22.4,82,39,27,30.15,30.03,6,1,9,0.00
2013-1-24,62.1,55.9,51.3,60.1,54.9,49.8,100,97,76,30.20,30.12,5,1,10,0.83
2013-1-25,60.1,56.9,55.0,60.1,56.9,55.0,100,100,100,30.15,29.97,4,0,5,0.43
2013-1-26,71.6,59.9,53.4,61.2,54.2,47.2,100,85,45,30.03,29.88,8,1,10,0.00
2013-1-27,58.5,52.0,45.3,55.1,46.9,26.7,100,85,45,30.03,29.97,8,1,13,0.24
2013-1-28,59.5,50.3,42.4,31.7,26.9,22.9,54,41,32,30.17,30.00,11,4,18,0.00
2013-1-29,61.2,46.7,35.8,36.6,32.3,26.4,87,60,35,30.20,30.12,7,1,10,0.00
2013-1-30,72.1,51.4,36.3,47.8,36.7,30.5,100,65,27,30.29,30.20,8,1,10,0.00
2013-1-31,77.7,56.1,38.8,45.5,37.7,30.1,100,58,25,30.26,30.09,8,1,13,0.00
2013-2-1,76.3,57.0,40.3,47.1,38.9,34.3,100,58,25,30.17,30.12,6,1,10,0.00
2013-2-2,75.0,61.0,49.8,46.9,40.8,32.8,82,52,27,30.20,30.12,5,1,8,0.00
2013-2-3,76.6,60.9,48.4,47.6,41.0,35.1,84,52,25,30.17,30.03,6,1,9,0.00
2013-2-4,77.2,56.4,41.2,48.4,41.4,36.8,100,64,25,30.09,29.97,6,0,8,0.00
2013-2-5,59.4,52.4,46.8,53.1,50.0,46.5,100,92,66,30.09,30.00,5,1,8,0.00
2013-2-6,64.8,52.7,42.3,53.4,45.7,39.2,100,81,40,30.12,30.00,6,1,9,0.00
2013-2-7,61.9,49.6,38.3,51.4,43.4,38.3,100,81,57,30.12,29.97,7,1,8,0.00
2013-2-8,54.3,45.8,37.6,43.4,37.7,30.2,100,76,45,29.97,29.82,11,2,14,0.07
2013-2-9,57.0,43.8,33.1,47.3,35.0,28.8,100,76,42,30.09,29.91,6,1,8,0.00
2013-2-10,56.8,45.0,33.1,44.8,37.3,33.1,100,78,47,30.09,29.97,8,1,12,0.00
2013-2-11,61.9,47.9,35.1,44.4,31.9,21.8,100,62,32,30.20,30.03,10,2,15,0.00
2013-2-12,67.5,48.2,31.1,37.4,29.4,20.3,100,55,29,30.29,30.20,7,1,10,0.00
2013-2-13,72.0,50.9,34.3,36.9,31.2,24.3,89,51,27,30.23,30.12,6,1,8,0.00
2013-2-14,77.2,55.0,36.1,39.4,34.7,27.7,94,52,25,30.17,30.06,10,1,15,0.00
2013-2-15,79.9,63.8,43.9,40.9,33.6,24.2,66,34,25,30.23,30.12,10,3,17,0.00
2013-2-16,80.1,58.5,40.1,41.2,31.3,21.6,66,38,25,30.20,30.00,8,1,13,0.00
2013-2-17,71.2,54.0,36.9,49.4,32.6,25.1,82,47,29,30.00,29.91,9,2,11,0.00
2013-2-18,65.7,55.8,49.6,45.2,42.0,38.3,81,62,40,30.06,29.94,6,2,8,0.00
2013-2-19,52.9,49.4,42.4,50.9,41.7,37.7,100,75,61,30.00,29.70,8,2,11,0.24
2013-2-20,60.1,47.6,34.0,42.4,29.3,21.8,100,54,32,29.97,29.67,8,2,13,0.00
2013-2-21,62.2,47.4,33.4,39.6,31.3,24.1,91,57,32,30.09,29.94,9,2,14,0.00
2013-2-22,68.4,49.9,33.4,39.8,31.4,22.4,100,55,29,30.17,30.06,9,1,12,0.00
2013-2-23,67.6,52.2,35.6,39.7,32.7,25.4,87,51,29,30.15,29.91,11,2,19,0.00
2013-2-24,65.8,54.9,39.9,33.5,26.4,18.4,49,34,30,30.17,30.00,14,5,25,0.00
2013-2-25,72.5,50.6,33.1,36.8,28.0,21.8,69,44,27,30.20,30.06,10,1,15,0.00
2013-2-26,73.4,57.6,37.0,37.1,30.8,20.2,69,39,27,30.15,29.97,10,3,17,0.00
2013-2-27,72.3,58.2,39.6,36.9,28.5,17.7,47,33,27,30.26,30.12,12,3,19,0.00
2013-2-28,79.7,64.7,50.5,40.7,31.9,21.3,35,30,25,30.35,30.23,10,2,17,0.00
2013-3-1,86.0,65.6,45.7,42.7,32.6,20.8,42,30,22,30.32,30.17,7,2,10,0.00
2013-3-2,86.0,63.1,43.0,42.6,33.5,23.8,66,35,22,30.26,30.12,7,1,8,0.00
2013-3-3,74.3,60.7,49.8,45.7,37.4,29.3,86,44,27,30.15,30.00,9,1,14,0.00
2013-3-4,69.4,57.6,47.1,54.7,46.9,42.7,100,71,40,30.12,30.03,7,2,10,0.00
2013-3-5,67.1,54.3,45.5,54.0,47.6,43.5,100,80,49,30.12,30.00,7,2,9,0.00
2013-3-6,60.8,53.3,43.9,49.5,43.9,38.5,100,72,47,30.12,30.00,7,2,9,0.00
2013-3-7,61.7,53.6,48.7,50.7,42.9,31.9,100,71,40,30.00,29.82,9,2,13,0.20
2013-3-8,59.2,50.3,42.3,49.3,42.6,34.8,100,78,44,30.00,29.76,13,2,16,0.75
2013-3-9,68.0,54.6,41.9,45.6,37.0,25.6,100,57,30,30.20,30.00,8,2,11,0.00
2013-3-10,77.2,60.5,43.0,38.7,33.0,25.3,74,38,25,30.23,30.12,9,2,20,0.00
2013-3-11,79.0,58.6,38.1,40.4,34.7,28.1,89,46,25,30.17,30.03,6,1,9,0.00
2013-3-12,85.5,63.0,42.1,43.6,38.2,31.4,91,46,22,30.12,30.00,7,1,8,0.00
2013-3-13,92.7,67.2,45.7,45.8,39.1,30.1,82,41,20,30.12,30.03,6,1,9,0.00
2013-3-14,93.6,68.4,47.7,47.6,40.0,32.4,81,40,19,30.09,30.03,6,1,10,0.00
2013-3-15,84.7,66.0,50.4,51.7,43.4,32.8,87,49,22,30.06,29.94,7,1,10,0.00
2013-3-16,77.9,60.4,50.9,58.1,50.0,44.8,100,74,35,29.97,29.88,6,1,9,0.00
2013-3-17,76.5,61.0,48.7,52.0,45.0,32.4,100,62,25,30.00,29.91,8,2,11,0.00
2013-3-18,71.6,58.3,50.0,52.5,48.0,42.5,100,72,37,30.09,29.97,7,1,10,0.15
2013-3-19,74.8,58.7,46.0,55.2,48.5,0.0,100,74,32,30.12,30.03,8,1,9,0.00
2013-3-20,76.3,62.4,50.9,58.1,46.5,38.4,100,63,30,30.12,29.97,8,2,13,0.00
2013-3-21,76.5,63.5,0.0,50.1,44.3,0.0,89,53,30,29.97,29.82,8,2,10,0.00
2013-3-22,83.7,65.1,47.3,54.0,36.5,28.1,100,39,24,29.91,29.79,10,3,13,0.00
2013-3-23,79.7,62.2,44.8,50.7,37.3,25.4,100,44,25,30.03,29.88,7,2,11,0.00
2013-3-24,84.6,63.6,48.0,56.7,41.2,27.3,100,52,22,30.03,29.91,8,1,10,0.00
2013-3-25,80.6,62.5,45.1,49.1,40.6,33.7,94,50,24,29.97,29.88,7,1,10,0.00
2013-3-26,76.6,60.9,46.4,54.1,45.6,40.1,100,63,30,29.97,29.91,7,1,10,0.00
2013-3-27,73.8,59.8,49.8,54.1,47.6,41.3,100,69,35,30.03,29.94,7,1,10,0.00
2013-3-28,80.1,61.8,49.6,55.5,48.3,42.1,100,67,29,30.06,30.00,8,1,11,0.00
2013-3-29,87.1,63.9,48.4,60.1,47.6,37.1,100,65,22,30.12,30.00,8,1,11,0.04
2013-3-30,80.8,64.1,52.0,58.5,45.8,32.7,100,59,24,30.12,30.03,6,2,9,0.00
2013-3-31,68.9,60.5,54.7,52.8,49.0,41.6,87,67,49,30.12,30.03,9,2,12,0.00
2013-4-1,70.3,59.1,51.1,51.2,46.0,40.5,94,65,37,30.15,30.06,9,2,14,0.00
2013-4-2,79.2,61.2,46.2,55.3,46.6,38.4,100,65,30,30.06,29.97,8,1,10,0.00
2013-4-3,86.4,65.5,48.4,57.8,47.0,39.9,100,60,22,30.09,29.97,8,2,10,0.00
2013-4-4,81.1,63.6,0.0,56.3,51.0,0.0,100,70,29,30.09,30.00,10,2,15,0.00
2013-4-5,78.8,63.9,55.6,56.7,50.9,41.2,97,67,30,30.06,29.97,9,2,13,0.00
2013-4-6,82.8,63.2,48.9,58.1,49.1,43.3,100,67,27,30.06,29.94,8,1,13,0.00
2013-4-7,85.8,66.0,53.1,51.4,45.3,0.0,87,52,22,29.97,29.82,9,2,14,0.00
2013-4-8,68.9,59.8,51.1,56.2,39.7,27.3,100,53,29,29.82,29.67,9,3,14,0.00
2013-4-9,79.2,61.0,42.3,40.4,34.5,27.3,77,41,25,30.03,29.82,9,2,13,0.00
2013-4-10,87.8,69.2,50.4,43.8,34.5,23.7,42,29,22,30.09,29.97,9,2,14,0.00
2013-4-11,79.7,63.2,46.4,49.9,39.5,32.4,79,46,25,30.03,29.79,8,2,12,0.00
2013-4-12,81.1,64.4,0.0,53.7,48.9,0.0,96,62,29,29.91,29.79,6,2,10,0.00
2013-4-13,68.0,58.7,54.1,55.9,52.2,47.6,100,81,50,29.91,29.82,7,2,9,0.00
2013-4-14,66.0,58.3,54.3,52.2,47.9,45.3,89,69,49,29.88,29.79,7,2,9,0.00
2013-4-15,65.8,58.4,51.8,49.8,45.5,39.9,82,63,42,29.88,29.82,8,2,11,0.00
2013-4-16,70.9,58.2,46.8,44.0,34.5,27.3,87,45,29,29.97,29.82,10,2,17,0.00
2013-4-17,76.8,60.9,41.4,38.5,30.2,19.8,50,32,25,30.15,29.97,10,2,19,0.04
2013-4-18,81.9,66.0,47.3,41.5,33.0,21.8,45,30,24,30.17,30.12,10,4,22,0.00
2013-4-19,90.1,67.7,43.5,45.3,34.2,21.8,54,31,20,30.15,29.97,9,2,13,0.00
2013-4-20,94.5,72.2,52.2,46.2,38.0,27.3,45,31,19,30.00,29.88,10,2,13,0.00
2013-4-21,92.8,71.0,50.2,52.2,43.3,33.8,86,43,20,30.03,29.94,10,2,13,0.00
2013-4-22,81.5,65.2,54.5,56.8,49.3,36.2,100,65,24,30.03,29.85,7,2,10,0.00
2013-4-23,84.0,65.7,54.1,52.6,47.3,42.2,92,57,27,29.97,29.85,7,2,9,0.00
2013-4-24,63.7,58.7,55.6,53.6,50.4,44.0,92,74,61,30.00,29.88,8,2,10,0.00
2013-4-25,75.6,64.0,54.5,48.3,42.9,37.6,77,49,30,30.12,29.94,8,2,10,0.00
2013-4-26,83.1,65.5,46.9,53.1,44.4,40.1,100,52,27,30.15,30.09,7,1,10,0.00
2013-4-27,91.2,70.5,50.0,58.3,46.7,35.4,100,51,20,30.15,29.97,6,2,9,0.00
2013-4-28,88.7,68.7,50.7,58.1,50.4,43.8,100,60,25,30.03,29.82,7,2,9,0.00
2013-4-29,83.1,66.8,55.9,58.8,50.9,38.8,100,64,29,29.91,29.79,8,3,12,0.00
2013-4-30,71.8,62.2,56.7,57.6,50.4,44.1,100,69,39,29.88,29.82,7,2,10,0.00
2013-5-1,86.9,69.2,57.2,53.6,49.0,43.3,86,54,27,30.09,29.88,7,2,9,0.00
2013-5-2,94.6,74.6,50.0,62.1,45.4,31.8,100,46,19,30.12,30.00,14,3,22,0.00
2013-5-3,99.1,72.5,50.9,53.4,36.6,24.2,39,28,19,30.06,29.82,8,1,10,0.00
2013-5-4,78.3,74.5,67.6,48.6,45.6,43.8,50,37,30,29.76,29.73,7,4,9,0.00